Time,TemperatureF,DewpointF,PressureIn,WindDirection,WindDirectionDegrees,WindSpeedMPH,WindSpeedGustMPH,Humidity,HourlyPrecipIn,Conditions,Clouds,dailyrainin,SoftwareType,DateUTC
2013-01-06 00:02:00,25.8,21.0,30.16,NW,318,0.0,-999.0,81,-99.99,,,0.00,weatherlink.com 1.10,2013-01-06 05:02:00,
2013-01-06 00:17:00,26.0,21.0,30.14,NW,318,0.0,-999.0,82,-99.99,,,0.00,weatherlink.com 1.10,2013-01-06 05:17:00,
2013-01-06 00:32:00,26.0,22.0,30.13,NW,318,0.0,-999.0,83,-99.99,,,0.00,weatherlink.com 1.10,2013-01-06 05:32:00,
2013-01-06 00:47:00,25.9,21.0,30.13,NW,318,0.0,-999.0,83,-99.99,,,0.00,weatherlink.com 1.10,2013-01-06 05:47:00,
2013-01-06 01:02:00,25.8,21.0,30.12,NW,318,1.0,-999.0,83,-99.99,,,0.00,weatherlink.com 1.10,2013-01-06 06:02:00,
2013-01-06 01:17:00,26.2,22.0,30.13,NW,318,0.0,-999.0,83,-99.99,,,0.00,weatherlink.com 1.10,2013-01-06 06:17:00,
2013-01-06 01:32:00,26.6,22.0,30.14,NW,318,0.0,-999.0,82,-99.99,,,0.00,weatherlink.com 1.10,2013-01-06 06:32:00,
2013-01-06 01:47:00,26.8,22.0,30.15,NW,318,0.0,-999.0,81,-99.99,,,0.00,weatherlink.com 1.10,2013-01-06 06:47:00,
2013-01-06 02:02:00,27.1,22.0,30.16,NW,318,0.0,-999.0,81,-99.99,,,0.00,weatherlink.com 1.10,2013-01-06 07:02:00,
2013-01-06 02:17:00,27.6,22.0,30.17,NW,318,0.0,-999.0,80,-99.99,,,0.00,weatherlink.com 1.10,2013-01-06 07:17:00,
2013-01-06 02:32:00,27.7,22.0,30.15,NW,318,0.0,-999.0,80,-99.99,,,0.00,weatherlink.com 1.10,2013-01-06 07:32:00,
2013-01-06 02:47:00,27.8,23.0,30.14,NW,318,0.0,-999.0,81,-99.99,,,0.00,weatherlink.com 1.10,2013-01-06 07:47:00,
2013-01-06 03:02:00,27.9,23.0,30.13,NW,318,0.0,-999.0,81,-99.99,,,0.00,weatherlink.com 1.10,2013-01-06 08:02:00,
2013-01-06 03:17:00,28.0,23.0,30.12,NW,318,0.0,-999.0,80,-99.99,,,0.00,weatherlink.com 1.10,2013-01-06 08:17:00,
2013-01-06 03:32:00,28.1,23.0,30.11,NW,318,0.0,-999.0,81,-99.99,,,0.00,weatherlink.com 1.10,2013-01-06 08:32:00,
2013-01-06 03:47:00,28.1,23.0,30.10,NW,318,0.0,-999.0,80,-99.99,,,0.00,weatherlink.com 1.10,2013-01-06 08:47:00,
2013-01-06 04:02:00,28.4,23.0,30.09,NW,318,0.0,-999.0,80,-99.99,,,0.00,weatherlink.com 1.10,2013-01-06 09:02:00,
2013-01-06 04:17:00,28.7,23.0,30.08,NW,318,0.0,-999.0,79,-99.99,,,0.00,weatherlink.com 1.10,2013-01-06 09:17:00,
2013-01-06 04:32:00,28.9,23.0,30.08,NW,318,0.0,-999.0,78,-99.99,,,0.00,weatherlink.com 1.10,2013-01-06 09:32:00,
2013-01-06 05:02:00,29.7,23.0,30.07,NW,325,0.0,-999.0,77,-99.99,,,0.00,weatherlink.com 1.10,2013-01-06 10:02:00,
2013-01-06 05:17:00,29.6,24.0,30.06,NW,325,0.0,-999.0,79,-99.99,,,0.00,weatherlink.com 1.10,2013-01-06 10:17:00,
2013-01-06 05:32:00,29.5,24.0,30.06,NW,325,0.0,-999.0,81,-99.99,,,0.00,weatherlink.com 1.10,2013-01-06 10:32:00,
2013-01-06 05:47:00,29.8,25.0,30.05,NW,321,0.0,-999.0,81,-99.99,,,0.00,weatherlink.com 1.10,2013-01-06 10:47:00,
2013-01-06 06:02:00,29.9,24.0,30.04,NW,320,0.0,-999.0,79,-99.99,,,0.00,weatherlink.com 1.10,2013-01-06 11:02:00,
2013-01-06 06:17:00,30.0,24.0,30.04,West,265,0.0,-999.0,79,-99.99,,,0.00,weatherlink.com 1.10,2013-01-06 11:17:00,
2013-01-06 06:32:00,30.2,24.0,30.04,West,265,0.0,-999.0,79,-99.99,,,0.00,weatherlink.com 1.10,2013-01-06 11:32:00,
2013-01-06 06:47:00,30.3,25.0,30.03,West,266,0.0,-999.0,81,-99.99,,,0.00,weatherlink.com 1.10,2013-01-06 11:47:00,
2013-01-06 07:02:00,30.5,26.0,30.03,West,266,0.0,-999.0,84,-99.99,,,0.00,weatherlink.com 1.10,2013-01-06 12:02:00,
2013-01-06 07:17:00,30.6,27.0,30.03,West,266,0.0,-999.0,85,-99.99,,,0.00,weatherlink.com 1.10,2013-01-06 12:17:00,
2013-01-06 07:32:00,30.6,27.0,30.02,West,266,0.0,-999.0,86,-99.99,,,0.00,weatherlink.com 1.10,2013-01-06 12:32:00,
2013-01-06 07:47:00,30.8,28.0,30.02,West,265,0.0,-999.0,88,-99.99,,,0.00,weatherlink.com 1.10,2013-01-06 12:47:00,
2013-01-06 08:02:00,31.2,28.0,30.02,West,261,0.0,-999.0,88,-99.99,,,0.00,weatherlink.com 1.10,2013-01-06 13:02:00,
2013-01-06 08:17:00,31.5,28.0,30.01,West,267,0.0,-999.0,88,-99.99,,,0.00,weatherlink.com 1.10,2013-01-06 13:17:00,
2013-01-06 08:32:00,31.8,29.0,30.01,West,275,0.0,-999.0,88,-99.99,,,0.00,weatherlink.com 1.10,2013-01-06 13:32:00,
2013-01-06 08:47:00,32.1,29.0,30.01,WSW,243,3.0,-999.0,87,-99.99,,,0.00,weatherlink.com 1.10,2013-01-06 13:47:00,
2013-01-06 09:02:00,32.8,29.0,30.01,West,279,0.0,-999.0,86,-99.99,,,0.00,weatherlink.com 1.10,2013-01-06 14:02:00,
2013-01-06 09:17:00,33.7,29.0,30.00,West,261,4.0,-999.0,84,-99.99,,,0.00,weatherlink.com 1.10,2013-01-06 14:17:00,
2013-01-06 09:32:00,34.4,29.0,30.00,West,262,4.0,-999.0,81,-99.99,,,0.00,weatherlink.com 1.10,2013-01-06 14:32:00,
2013-01-06 09:47:00,35.1,29.0,29.99,SSW,207,5.0,-999.0,78,-99.99,,,0.00,weatherlink.com 1.10,2013-01-06 14:47:00,
2013-01-06 10:02:00,35.6,29.0,29.99,NW,311,4.0,-999.0,77,-99.99,,,0.00,weatherlink.com 1.10,2013-01-06 15:02:00,
2013-01-06 10:17:00,36.0,29.0,29.98,SSW,207,1.0,-999.0,75,-99.99,,,0.00,weatherlink.com 1.10,2013-01-06 15:17:00,
2013-01-06 10:32:00,36.4,29.0,29.97,West,273,5.0,-999.0,74,-99.99,,,0.00,weatherlink.com 1.10,2013-01-06 15:32:00,
2013-01-06 10:47:00,37.2,29.0,29.97,West,266,4.0,-999.0,73,-99.99,,,0.00,weatherlink.com 1.10,2013-01-06 15:47:00,
2013-01-06 11:02:00,37.6,29.0,29.95,NNW,330,2.0,-999.0,71,-99.99,,,0.00,weatherlink.com 1.10,2013-01-06 16:02:00,
2013-01-06 11:17:00,38.2,29.0,29.94,West,260,2.0,-999.0,69,-99.99,,,0.00,weatherlink.com 1.10,2013-01-06 16:17:00,
2013-01-06 11:32:00,38.9,29.0,29.93,West,280,4.0,-999.0,68,-99.99,,,0.00,weatherlink.com 1.10,2013-01-06 16:32:00,
2013-01-06 11:47:00,39.5,29.0,29.92,SW,232,0.0,-999.0,66,-99.99,,,0.00,weatherlink.com 1.10,2013-01-06 16:47:00,
2013-01-06 12:02:00,40.2,29.0,29.91,West,266,1.0,-999.0,65,-99.99,,,0.00,weatherlink.com 1.10,2013-01-06 17:02:00,
2013-01-06 12:17:00,41.3,29.0,29.91,WSW,238,2.0,-999.0,63,-99.99,,,0.00,weatherlink.com 1.10,2013-01-06 17:17:00,
2013-01-06 12:32:00,42.2,29.0,29.90,West,274,5.0,-999.0,60,-99.99,,,0.00,weatherlink.com 1.10,2013-01-06 17:32:00,
2013-01-06 12:47:00,42.8,29.0,29.89,WNW,288,11.0,-999.0,59,-99.99,,,0.00,weatherlink.com 1.10,2013-01-06 17:47:00,
2013-01-06 13:02:00,42.9,29.0,29.89,NNW,333,0.0,-999.0,59,-99.99,,,0.00,weatherlink.com 1.10,2013-01-06 18:02:00,
2013-01-06 13:17:00,42.8,29.0,29.88,West,277,2.0,-999.0,59,-99.99,,,0.00,weatherlink.com 1.10,2013-01-06 18:17:00,
2013-01-06 13:32:00,42.9,30.0,29.88,NNW,331,0.0,-999.0,60,-99.99,,,0.00,weatherlink.com 1.10,2013-01-06 18:32:00,
2013-01-06 13:47:00,42.9,29.0,29.88,WNW,301,1.0,-999.0,58,-99.99,,,0.00,weatherlink.com 1.10,2013-01-06 18:47:00,
2013-01-06 14:02:00,43.0,29.0,29.88,NW,318,0.0,-999.0,59,-99.99,,,0.00,weatherlink.com 1.10,2013-01-06 19:02:00,
2013-01-06 14:32:00,43.5,29.0,29.89,NW,311,3.0,-999.0,57,-99.99,,,0.00,weatherlink.com 1.10,2013-01-06 19:32:00,
2013-01-06 15:02:00,43.3,29.0,29.89,NNW,334,0.0,-999.0,58,-99.99,,,0.00,weatherlink.com 1.10,2013-01-06 20:02:00,
2013-01-06 15:17:00,42.7,29.0,29.88,WNW,290,3.0,-999.0,59,-99.99,,,0.00,weatherlink.com 1.10,2013-01-06 20:17:00,
2013-01-06 15:32:00,42.4,29.0,29.88,NW,312,1.0,-999.0,60,-99.99,,,0.00,weatherlink.com 1.10,2013-01-06 20:32:00,
2013-01-06 15:47:00,41.8,29.0,29.88,NNW,344,7.0,-999.0,61,-99.99,,,0.00,weatherlink.com 1.10,2013-01-06 20:47:00,
2013-01-06 16:03:00,41.2,29.0,29.88,NW,314,1.0,-999.0,61,-99.99,,,0.00,weatherlink.com 1.10,2013-01-06 21:03:00,
2013-01-06 16:17:00,40.7,28.0,29.89,NW,322,4.0,-999.0,62,-99.99,,,0.00,weatherlink.com 1.10,2013-01-06 21:17:00,
2013-01-06 16:32:00,40.1,29.0,29.89,NW,323,0.0,-999.0,64,-99.99,,,0.00,weatherlink.com 1.10,2013-01-06 21:32:00,
2013-01-06 16:47:00,39.1,28.0,29.89,NW,323,0.0,-999.0,65,-99.99,,,0.00,weatherlink.com 1.10,2013-01-06 21:47:00,
2013-01-06 17:02:00,38.1,28.0,29.89,NW,323,0.0,-999.0,66,-99.99,,,0.00,weatherlink.com 1.10,2013-01-06 22:02:00,
2013-01-06 17:17:00,36.9,28.0,29.90,NW,323,0.0,-999.0,70,-99.99,,,0.00,weatherlink.com 1.10,2013-01-06 22:17:00,
2013-01-06 17:32:00,35.8,28.0,29.90,NW,323,0.0,-999.0,72,-99.99,,,0.00,weatherlink.com 1.10,2013-01-06 22:32:00,
2013-01-06 17:47:00,34.8,28.0,29.90,NW,323,0.0,-999.0,75,-99.99,,,0.00,weatherlink.com 1.10,2013-01-06 22:47:00,
2013-01-06 18:02:00,34.2,28.0,29.91,NW,323,0.0,-999.0,77,-99.99,,,0.00,weatherlink.com 1.10,2013-01-06 23:02:00,
2013-01-06 18:17:00,33.6,28.0,29.91,NW,323,0.0,-999.0,79,-99.99,,,0.00,weatherlink.com 1.10,2013-01-06 23:17:00,
2013-01-06 18:32:00,33.2,28.0,29.91,NW,323,0.0,-999.0,81,-99.99,,,0.00,weatherlink.com 1.10,2013-01-06 23:32:00,
2013-01-06 18:47:00,33.4,29.0,29.91,NW,323,0.0,-999.0,82,-99.99,,,0.00,weatherlink.com 1.10,2013-01-06 23:47:00,
2013-01-06 19:02:00,33.6,28.0,29.91,NW,323,0.0,-999.0,81,-99.99,,,0.00,weatherlink.com 1.10,2013-01-07 00:02:00,
2013-01-06 19:17:00,33.8,29.0,29.91,NW,323,0.0,-999.0,81,-99.99,,,0.00,weatherlink.com 1.10,2013-01-07 00:17:00,
2013-01-06 19:32:00,34.0,29.0,29.91,NW,323,0.0,-999.0,82,-99.99,,,0.00,weatherlink.com 1.10,2013-01-07 00:32:00,
2013-01-06 19:47:00,34.1,29.0,29.91,NW,323,0.0,-999.0,82,-99.99,,,0.00,weatherlink.com 1.10,2013-01-07 00:47:00,
2013-01-06 20:02:00,34.3,29.0,29.91,NW,323,0.0,-999.0,81,-99.99,,,0.00,weatherlink.com 1.10,2013-01-07 01:02:00,
2013-01-06 20:17:00,34.7,29.0,29.91,NW,323,0.0,-999.0,81,-99.99,,,0.00,weatherlink.com 1.10,2013-01-07 01:17:00,
2013-01-06 20:32:00,34.9,30.0,29.91,NW,323,0.0,-999.0,81,-99.99,,,0.00,weatherlink.com 1.10,2013-01-07 01:32:00,
2013-01-06 20:47:00,35.2,30.0,29.91,NW,323,0.0,-999.0,80,-99.99,,,0.00,weatherlink.com 1.10,2013-01-07 01:47:00,
2013-01-06 21:02:00,35.4,30.0,29.91,NW,323,0.0,-999.0,80,-99.99,,,0.00,weatherlink.com 1.10,2013-01-07 02:02:00,
2013-01-06 21:17:00,35.6,30.0,29.90,NW,323,0.0,-999.0,79,-99.99,,,0.00,weatherlink.com 1.10,2013-01-07 02:17:00,
2013-01-06 21:32:00,35.6,29.0,29.90,NW,323,0.0,-999.0,78,-99.99,,,0.00,weatherlink.com 1.10,2013-01-07 02:32:00,
2013-01-06 21:47:00,35.7,29.0,29.91,NW,323,0.0,-999.0,78,-99.99,,,0.00,weatherlink.com 1.10,2013-01-07 02:47:00,
2013-01-06 22:02:00,35.9,30.0,29.91,NW,306,0.0,-999.0,78,-99.99,,,0.00,weatherlink.com 1.10,2013-01-07 03:02:00,
2013-01-06 22:17:00,36.9,30.0,29.91,WSW,248,0.0,-999.0,75,-99.99,,,0.00,weatherlink.com 1.10,2013-01-07 03:17:00,
2013-01-06 22:32:00,37.1,30.0,29.91,NNW,331,0.0,-999.0,74,-99.99,,,0.00,weatherlink.com 1.10,2013-01-07 03:32:00,
2013-01-06 22:47:00,37.1,30.0,29.90,WNW,292,0.0,-999.0,74,-99.99,,,0.00,weatherlink.com 1.10,2013-01-07 03:47:00,
2013-01-06 23:02:00,36.8,29.0,29.90,West,265,0.0,-999.0,74,-99.99,,,0.00,weatherlink.com 1.10,2013-01-07 04:02:00,
2013-01-06 23:17:00,36.2,29.0,29.90,West,265,0.0,-999.0,75,-99.99,,,0.00,weatherlink.com 1.10,2013-01-07 04:17:00,
2013-01-06 23:32:00,35.7,29.0,29.90,West,265,0.0,-999.0,76,-99.99,,,0.00,weatherlink.com 1.10,2013-01-07 04:32:00,
2013-01-06 23:48:00,35.1,29.0,29.89,West,265,0.0,-999.0,77,-99.99,,,0.00,weatherlink.com 1.10,2013-01-07 04:48:00,